Location: Cieszkowy
(50.3290°N, 20.5336°E)
Time: 14:55:27
(UTC+00:00)

CZ-2D R/B - Pass Details

Date: 15 June 2024
Orbit: 789 x 844 km, 98.8° (Epoch: 14 July)

Event Time Altitude Azimuth Distance (km) Brightness Sun altitude
Rises 00:10:06 0° 20° (NNE) 3,374 7.4 -13.6°
Reaches altitude 10° 00:12:37 10° 27° (NNE) 2,428 6.1 -13.5°
Maximum altitude 00:17:42 42° 98° (E) 1,146 3.0 -13.1°
Enters shadow 00:22:27 11° 168° (SSE) 2,297 4.0 -12.8°
